Location: Beaurecueil
(43.5122°N, 5.5450°E)
Time: 01:15:24
(UTC+00:00)

Cosmos 1125 Rocket - Pass Details

Date: 18 September 2020
Orbit: 758 x 780 km, 74.0° (Epoch: 26 October)

Event Time Altitude Azimuth Distance (km) Brightness Sun altitude
Rises 18:55:59 0° 168° (SSE) 3,240 6.5 -14.1°
Reaches altitude 10° 18:58:38 10° 156° (SSE) 2,320 5.6 -14.5°
Maximum altitude 19:03:03 28° 99° (E) 1,438 4.3 -15.3°
Drops below altitude 10° 19:07:30 10° 42° (NE) 2,340 5.8 -16.1°
Sets 19:10:11 0° 31° (NNE) 3,273 6.6 -16.5°
